COLIBRI-S (RS67S)

Last updated on Wed Sep 09 2026 00:03:15 GMT+0000 (Coordinated Universal Time)

1 61746U 24199M 26251.56906700 .00027763 00000+0 47759-3 0 9997 2 61746 97.2831 126.3189 0007193 353.4115 6.7041 15.51048387150329
UTC large
Height (km)
Speed (km/s)
/
Latitude / Longitude
Inclination (degrees)
Orbital Period (minutes)
Azimuth
Elevation
Range (km)
Doppler Factor

Next 0 passes for location: London (51.5072 / 0.1276)

No passes found over London.
COLIBRI-S (RS67S)